Location: Elm Mott Branch
(32.1549°N, 97.5139°W)
Time: 09:39:42
(UTC+00:00)

Tsikada Rocket - Pass Details

Date: 18 November 2025
Orbit: 958 x 1008 km, 82.9° (Epoch: 07 December)

Event Time Altitude Azimuth Distance (km) Brightness Sun altitude
Rises 12:28:19 0° 188° (S) 3,676 7.2 -7.5°
Reaches altitude 10° 12:30:48 10° 190° (S) 2,738 6.5 -7.0°
Maximum altitude 12:37:06 78° 276° (W) 1,022 4.1 -5.8°
Drops below altitude 10° 12:43:30 10° 3° (N) 2,781 6.2 -4.5°
Sets 12:46:03 0° 5° (N) 3,738 6.9 -4.0°
